Location: Leuk
(46.3174°N, 7.6341°E)
Time: 16:46:56
(UTC+00:00)

Cosmos 1151 Rocket - Pass Details

Date: 09 March 2021
Orbit: 592 x 615 km, 82.5° (Epoch: 16 April)

Event Time Altitude Azimuth Distance (km) Brightness Sun altitude
Rises 05:13:39 0° 215° (SW) 2,851 6.1 -7.7°
Reaches altitude 10° 05:16:06 10° 227° (SW) 1,948 5.2 -7.3°
Maximum altitude 05:19:51 28° 287° (WNW) 1,133 3.9 -6.7°
Drops below altitude 10° 05:23:36 10° 348° (NNW) 1,949 5.5 -6.0°
Sets 05:26:04 0° 360° (N) 2,853 6.5 -5.6°
